Skip Page Navigation
NASA JPL Caltech
NASA Logo - Jet Propulsion Laboratory + View the NASA Portal
+ Near-Earth Object (NEO) Program
Search JPL
JPL Home Earth Solar System Stars & Galaxies Technology
JPL Solar System Dynamics
BODIES ORBITS EPHEMERIDES TOOLS PHYSICAL DATA DISCOVERY FAQ SITE MAP
JPL Small-Body Database Browser
Search: [ help ]  
2926 Caldeira (1980 KG)
Classification: Main-belt Asteroid          SPK-ID: 2002926
Ephemeris | Orbit Diagram | Orbital Elements | Physical Parameters | Discovery Circumstances | Close-Approach Data ]

[ show orbit diagram ]
Orbital Elements at Epoch 2456800.5 (2014-May-23.0) TDB
Reference: JPL 12 (heliocentric ecliptic J2000)
 Element Value Uncertainty (1-sigma)   Units 
e .1183515490797792 5.3746e-08  
a 2.274422963544365 1.1496e-08 AU
q 2.005241482546267 1.2584e-07 AU
i 3.480169260201502 6.3802e-06 deg
node 220.9936577408824 8.0749e-05 deg
peri 35.60490249477623 8.5867e-05 deg
M 311.3864070455587 3.142e-05 deg
tp 2456969.684469402784
(2014-Nov-08.18446940)
0.00010984 JED
period 1252.86787672907
3.43
9.4985e-06
2.601e-08
d
yr
n .2873407537112944 2.1784e-09 deg/d
Q 2.543604444542463 1.2856e-08 AU
  Orbit Determination Parameters
   # obs. used (total)      1270  
   data-arc span      26390 days (72.25 yr)  
   first obs. used      1942-03-20  
   last obs. used      2014-06-20  
   planetary ephem.      DE431  
   SB-pert. ephem.      SB431-BIG16  
   condition code      0  
   fit RMS      .46966  
   data source      ORB  
   producer      Otto Matic  
   solution date      2014-Jul-14 12:04:30  

Additional Information
 Earth MOID = .991467 AU 
 T_jup = 3.598 
[ show covariance matrix ]

Ephemeris | Orbit Diagram | Orbital Elements | Physical Parameters | Discovery Circumstances | Close-Approach Data ]

Physical Parameter Table
Parameter Symbol Value Units Sigma Reference Notes
absolute magnitude H 13.1 mag n/a MPO256884  

2926 Caldeira (1980 KG)          Discovered 1980-May-22 by Debehogne, H. at La Silla (809)
Reference: DISCOVERY.DBLast Updated: 2003-08-29

[ show close-approach data ]
Alternate Designations
 1980 KG = 1942 FL 
Ephemeris | Orbit Diagram | Orbital Elements | Physical Parameters | Discovery Circumstances | Close-Approach Data ]
ABOUT SSD CREDITS/AWARDS PRIVACY/COPYRIGHT GLOSSARY LINKS
FirstGov 2014-Jul-25 18:21 UT
(server date/time)  
NASA Home Page
Site Manager:   Donald K. Yeomans
Webmaster  Alan B. Chamberlin